Terminal Aerodrome Forecast
Issued by NWS Louisville, KY

Home | Current Version | Previous Version | Text Only | Print | Product List | Glossary On
Versions: 1 2 3 4 5 6 7 8 9 10 11 12 13
000
FTUS43 KLMK 241120
TAFBWG
TAF
KBWG 241120Z 2412/2512 18006KT P6SM BKN250
     FM241800 22010KT P6SM SCT035 BKN250
     FM250100 20004KT P6SM FEW080 BKN250=

USA.gov is the U.S. government's official web portal to all federal, state and local government web resources and services.